Weather History for KJXN - June, 2012

Change the Weather History Date:

Sunday, June 10, 2012

  Actual Average Record
Temperature  
Mean Temperature 75 °F 66 °F  
Max Temperature 91 °F 77 °F 91 °F (1999)
Min Temperature 58 °F 55 °F 34 °F (1988)
Degree Days  
Heating Degree Days 0 2  
Month to date heating degree days 31  
Since 1 June heating degree days 31  
Since 1 July heating degree days 6633  
Cooling Degree Days 10 3  
Month to date cooling degree days 26  
Year to date cooling degree days 63  
Since 1 June cooling degree days 26  
Growing Degree Days 24 (Base 50)    
Moisture  
Dew Point 54 °F    
Average Humidity 56    
Maximum Humidity 80    
Minimum Humidity 31    
Precipitation  
Precipitation 0.00 in 0.12 in 0.67 in (2013)
Month to date precipitation 0.37 1.07  
Year to date precipitation 11.67  
Sea Level Pressure  
Sea Level Pressure 29.99 in    
Wind  
Wind Speed 5 mph (South)    
Max Wind Speed 15 mph    
Max Gust Speed 20 mph    
Visibility 10 miles    
Events      
T = Trace of Precipitation, MM = Missing Value Source: NWS Daily Summary

Daily Weather History Graph

Daily Weather History Graph

Search for Another Location

Airport or City:

Trip Planner

Search our weather history database for the weather conditions in past years. The results will help you decide how hot, cold, wet, or windy it might be!

Date:

Astronomy

Jun. 10, 2012 Rise Set
Actual Time 6:01 AM EDT 9:14 PM EDT
Civil Twilight 5:26 AM EDT 9:48 PM EDT
Nautical Twilight 4:42 AM EDT 10:32 PM EDT
Astronomical Twilight 3:48 AM EDT 11:26 PM EDT
Moon 1:00 AM EDT (6/10) 12:55 PM EDT (6/10)
Length of Visible Light 16h 21m
Length of Day
15h 13m
Waning Gibbous, 58% of the Moon is Illuminated
Jun 10
Waning Gibbous
Jun 11
Last Quarter
Jun 19
New
Jun 26
First Quarter
Jul 3
Full

Hourly Weather History & Observations

Time (EDT) Temp. Heat Index Dew Point Humidity Pressure Visibility Wind Dir Wind Speed Gust Speed Precip Events Conditions
12:56 AM 66.0 °F - 53.1 °F 63% 29.95 in 10.0 mi SW 3.5 mph - N/A   Clear
1:56 AM 64.9 °F - 52.0 °F 63% 29.96 in 10.0 mi SW 3.5 mph - N/A   Clear
2:56 AM 64.9 °F - 52.0 °F 63% 29.96 in 10.0 mi SW 3.5 mph - N/A   Clear
3:56 AM 60.8 °F - 51.8 °F 72% 29.99 in 10.0 mi Calm Calm - N/A   Clear
4:56 AM 57.9 °F - 52.0 °F 81% 29.98 in 10.0 mi SW 3.5 mph - N/A   Clear
5:56 AM 60.1 °F - 52.0 °F 75% 30.00 in 10.0 mi SW 3.5 mph - N/A   Clear
6:56 AM 60.1 °F - 52.0 °F 75% 30.01 in 10.0 mi WSW 3.5 mph - N/A   Clear
7:56 AM 69.1 °F - 55.0 °F 61% 30.03 in 10.0 mi SW 3.5 mph - N/A   Clear
8:56 AM 75.0 °F - 55.0 °F 50% 30.03 in 10.0 mi SW 6.9 mph - N/A   Clear
9:56 AM 81.0 °F 81.1 °F 57.9 °F 45% 30.04 in 10.0 mi SW 5.8 mph - N/A   Clear
10:56 AM 82.4 °F 82.0 °F 57.2 °F 42% 30.06 in 10.0 mi South 5.8 mph - N/A   Clear
11:56 AM 86.0 °F 85.0 °F 57.9 °F 38% 30.03 in 10.0 mi SSW 9.2 mph - N/A   Clear
12:56 PM 87.1 °F 85.9 °F 57.0 °F 36% 30.03 in 10.0 mi South 4.6 mph - N/A   Partly Cloudy
1:56 PM 84.9 °F 83.6 °F 55.0 °F 36% 30.02 in 10.0 mi South 5.8 mph - N/A   Partly Cloudy
2:56 PM 88.0 °F 86.5 °F 55.9 °F 34% 30.00 in 10.0 mi Variable 6.9 mph - N/A   Scattered Clouds
3:56 PM 87.1 °F 84.9 °F 53.1 °F 31% 29.99 in 10.0 mi SE 8.1 mph - N/A   Scattered Clouds
4:56 PM 89.1 °F 87.1 °F 55.0 °F 31% 29.98 in 10.0 mi SE 8.1 mph - N/A   Clear
5:56 PM 90.0 °F 87.9 °F 55.0 °F 30% 29.97 in 10.0 mi SSW 6.9 mph - N/A   Partly Cloudy
6:56 PM 88.0 °F 85.9 °F 54.0 °F 31% 29.97 in 10.0 mi South 9.2 mph 16.1 mph N/A   Clear
7:56 PM 86.0 °F 84.0 °F 53.1 °F 32% 29.96 in 10.0 mi South 6.9 mph - N/A   Clear
8:56 PM 80.1 °F 80.1 °F 55.0 °F 42% 29.96 in 10.0 mi SE 6.9 mph - N/A   Clear
9:56 PM 77.0 °F - 55.0 °F 47% 29.98 in 10.0 mi SE 6.9 mph - N/A   Clear
10:56 PM 75.0 °F - 55.0 °F 50% 29.99 in 10.0 mi SE 5.8 mph - N/A   Clear
11:56 PM 73.0 °F - 55.0 °F 53% 29.97 in 10.0 mi SE 5.8 mph - N/A   Clear